Location: *
(34.6903°N, 135.5184°E)
Time: 22:22:44
(UTC+00:00)

Cosmos 2221 Rocket - Pass Details

Date: 22 September 2019
Orbit: 621 x 647 km, 82.5° (Epoch: 20 October)

Event Time Altitude Azimuth Distance (km) Brightness Sun altitude
Rises 20:13:10 0° 206° (SSW) 2,884 6.7 -7.6°
Reaches altitude 10° 20:15:33 10° 216° (SW) 1,983 5.8 -7.1°
Maximum altitude 20:19:32 33° 281° (W) 1,044 4.2 -6.3°
Drops below altitude 10° 20:23:33 10° 346° (NNW) 1,999 6.1 -5.5°
Sets 20:25:58 0° 356° (N) 2,912 7.0 -5.0°
